Regional Weather Roundup
Issued by NWS

Home | Current Version | Previous Version | Graphics & Text | Print | Product List | Glossary On
Versions: 1 2 3 4 5 6 7 8 9 10 11 12 13 14 15 16 17 18 19 20 21 22 23 24 25 26 27 28 29 30 31 32 33 34 35 36 37 38 39 40 41 42 43 44 45 46 47 48 49 50
000
ASUS43 KMKX 051621
RWRWI

WISCONSIN REGIONAL WEATHER ROUNDUP
NATIONAL WEATHER SERVICE MILWAUKEE/SULLIVAN WI
1000 AM CST MON DEC 05 2016

NOTE: "FAIR" INDICATES FEW OR NO CLOUDS BELOW 12,000 FEET WITH NO
SIGNIFICANT WEATHER AND/OR OBSTRUCTIONS TO VISIBILITY.

WIZ001-002-006>008-014>016-023>028-051700-
NORTHWEST WISCONSIN

CITY           SKY/WX    TMP DP  RH WIND       PRES   REMARKS
SUPERIOR ARPT  CLOUDY    33  29  85 SW3       29.81S
ASHLAND        MOSUNNY   34  28  79 SW5       29.83R WCI  30
HAYWARD        CLOUDY    30  28  92 SE7       29.82R FOG     WCI  23
SIREN          CLOUDY    29  29  99 CALM      29.81R FOG
CUMBERLAND     FOG       28  28 100 SE5       29.81S VSB 1/4 WCI  23
RICE LAKE      FOG       28  28  98 SE7       29.84S VSB<1/4 WCI  21
CHETEK         FOG       29  28  99 SE7       29.84R VSB 1/4 WCI  22
LADYSMITH      FOG       31  30  99 S7        29.85S VSB 1/4 WCI  24
EAU CLAIRE     CLOUDY    31  31 100 SE8       29.84S FOG     WCI  23
MENOMONIE      FOG       31  31 100 E5        29.84S VSB 1/4 WCI  26
NEW RICHMOND   CLOUDY    30  30 100 SE7       29.81R FOG     WCI  23
OSCEOLA        MOSUNNY   32  32 100 SE9       29.83R WCI  24
$$

WIZ003>005-009-010-017-018-051700-
NORTH CENTRAL WISCONSIN

CITY           SKY/WX    TMP DP  RH WIND       PRES   REMARKS
MANITOWISH WTR CLOUDY    32  31  95 S7        29.81S WCI  26
ARBOR VITAE    MOSUNNY   33  29  86 CALM      29.82R
WOODRUFF       MOSUNNY   33  29  86 CALM      29.82R
RHINELANDER    MOSUNNY   32  29  88 SW6       29.84R WCI  26
EAGLE RIVER    MOSUNNY   32  26  80 SW6       29.82R WCI  26
LAND O LAKES   MOSUNNY   34  29  83 W5        29.83R WCI  30
PHILLIPS       CLOUDY    29  29  98 S6        29.82R WCI  23
TOMAHAWK       CLOUDY    32  28  88 CALM      29.85R
MEDFORD        CLOUDY    29  29  98 S7        29.84S FOG     WCI  22
MERRILL        CLOUDY    32  30  95 W3        29.86S
$$

WIZ029-030-035-036-043>047-051700-
CENTRAL WISCONSIN

CITY           SKY/WX    TMP DP  RH WIND       PRES   REMARKS
WAUSAU         CLOUDY    32  29  88 SW9       29.87R WCI  24
MOSINEE        PTSUNNY   32  30  93 SW9       29.89R WCI  24
MARSHFIELD     CLOUDY    31  29  92 S8        29.86R WCI  23
STEVENS POINT  CLOUDY    31  30  96 S10       29.90R WCI  22
WAUPACA        CLOUDY    36  31  83 S8        29.93R WCI  29
WAUTOMA        CLOUDY    34  31  88 S8        29.93R WCI  27
WISC RAPIDS    CLOUDY    33  31  92 S7        29.90S WCI  27
CAMP DOUGLAS   CLOUDY    34  32  93 SE5       29.89S FOG     WCI  30
$$

WIZ011>013-019>022-031-037>040-048>050-051700-
NORTHEAST WISCONSIN

CITY           SKY/WX    TMP DP  RH WIND       PRES   REMARKS
ANTIGO         MOSUNNY   32  28  85 W3        29.85S
SHAWANO        CLOUDY    37  32  81 SW6       29.91R WCI  33
OCONTO         CLOUDY    34  31  88 SW6       29.92R WCI  29
STURGEON BAY   CLOUDY    36  32  85 SW6       29.92R WCI  31
GREEN BAY      CLOUDY    36  32  85 SW6       29.93R WCI  31
MANITOWOC      CLOUDY    37  30  75 SW6       29.95R WCI  32
APPLETON       CLOUDY    34  32  93 SW9       29.91R WCI  26
CLINTONVILLE   CLOUDY    34  30  86 SW10      29.91R WCI  26
OSHKOSH        CLOUDY    34  30  85 S12       29.93R WCI  25
$$

WIZ032>034-041-042-053>061-051700-
SOUTHWEST WISCONSIN

CITY           SKY/WX    TMP DP  RH WIND       PRES   REMARKS
LA CROSSE      CLOUDY    36  33  89 S13       29.88S WCI  27
SPARTA         CLOUDY    33  32  96 S7        29.89S FOG     WCI  27
VIROQUA        CLOUDY    32  32 100 S8        29.87S VSB 1/4 WCI  25
BOSCOBEL       CLOUDY    35  32  88 S3        29.93S FOG
PRAIRIE DU CHI CLOUDY    33  31  92 SE7       29.92S FOG     WCI  27
PLATTEVILLE    CLOUDY    32  32 100 SE12      29.93S VSB 1/4 WCI  23
$$

WIZ056-057-062-063-064-067-068-051700-
SOUTH CENTRAL WISCONSIN

CITY           SKY/WX    TMP DP  RH WIND       PRES   REMARKS
REEDSBURG      CLOUDY    32  32 100 S12       29.92R FOG     WCI  23
BARABOO/DELLS  CLOUDY    33  32  98 S8        29.91S FOG     WCI  25
LONE ROCK      CLOUDY    34  31  88 S6        29.94S FOG     WCI  29
MINERAL POINT  FOG       34  34 100 SE10      29.91F VSB<1/4 WCI  26
MADISON        CLOUDY    33  32  96 S10       29.94S FOG     WCI  25
MIDDLETON      CLOUDY    35  35 100 S9        29.94S WCI  27
WATERTOWN      CLOUDY    33  33 100 S5        29.95S FOG     WCI  28
MONROE         FOG       32  32 100 S10       29.94S VSB<1/4 WCI  24
JANESVILLE     CLOUDY    34  34 100 S8        29.97S FOG     WCI  27
$$

WIZ051-052-058>065-066-070>072-051700-
SOUTHEAST WISCONSIN

CITY           SKY/WX    TMP DP  RH WIND       PRES   REMARKS
MILWAUKEE      CLOUDY    34  31  88 S9        30.00R WCI  27
WAUKESHA       CLOUDY    30  30 100 SW7       29.98R FOG     WCI  23
MILWAUKEE/TIMM CLOUDY    34  28  80 SW5       29.99R FOG     WCI  30
RACINE         CLOUDY    33  30  88 SW10      30.02R FOG     WCI  25
BURLINGTON     CLOUDY    33  32  98 S10       29.99S FOG     WCI  24
KENOSHA        CLOUDY    33  31  92 SW8       30.01R FOG     WCI  26
FOND DU LAC    CLOUDY    34  30  85 S8        29.94R WCI  27
SHEBOYGAN      CLOUDY    33  29  85 SW9       29.96R WCI  25
WEST BEND      CLOUDY    32  32 100 S10       29.97R WCI  24
JUNEAU         CLOUDY    32  31  96 S10       29.96S FOG     WCI  24
$$

LSZ147-162-051700-
LAKE SUPERIOR

STATION/POSITION TIME  TEMP    WIND        PRES    WAVE
                       AIR SEA DIR/SP/G            HT/PER
                 (UTC) (F)     (DEG/KT/KT) (MB)    (FT/S)
DEVILS ISLAND    1600   36     250/ 16/ 19 1010.5R
PORT WING        1540   36     180/  5/  6 1009.8S
SAXON HARBOR     1530   37     200/  2/  6 1010.2R
$$

LMZ867-665-643>646-051700-
LAKE MICHIGAN

STATION/POSITION TIME  TEMP    WIND        PRES    WAVE
                       AIR SEA DIR/SP/G            HT/PER
                 (UTC) (F)     (DEG/KT/KT) (MB)    (FT/S)
CHAMBERS ISLAND  1540   37     210/  8/ 13 1012.2R
NORTHPORT PIER   1540   40     280/  5/ 15 1012.2R
SISTER BAY       1523   39     280/ 19/ 22   N/A
ALGOMA LAKESHORE 1551          260/ 12/ 15   N/A
KEWAUNEE LAKESHO 1600   34     200/  6/  8 1013.4
SHEBOYGAN LAKESH 1600   34     200/ 10/ 11 1015.2R
PORT WASHINGTON  1540   36     210/  8/ 10 1016.3R
MILWAUKEE LAKESH 1600   34     230/ 11/ 13   N/A
KENOSHA   LAKESH 1600   33     210/  8/ 12 1016.6
$$

TC  - TEMPERATURE IN CELSIUS
VSB - VISIBILITY IN STATUTE MILES
WCI - WIND CHILL INDEX
HX  - HEAT INDEX





USA.gov is the U.S. government's official web portal to all federal, state and local government web resources and services.